Location: Pradons
(44.4746°N, 4.3578°E)
Time: 11:48:28
(UTC+00:00)

Cosmos 1300 - Pass Details

Date: 09 April 2020
Orbit: 511 x 515 km, 82.5° (Epoch: 25 May)

Event Time Altitude Azimuth Distance (km) Brightness Sun altitude
Exits shadow 20:17:39 11° 203° (SSW) 1,668 5.1 -20.0°
Maximum altitude 20:21:13 55° 281° (W) 627 3.3 -20.5°
Drops below altitude 10° 20:25:00 10° 360° (N) 1,752 5.8 -21.1°
Sets 20:27:11 0° 5° (N) 2,644 6.7 -21.4°
